,,PA_Meas_PMT16A,,PR_Meas_QMR101_102,,RH_Meas_QMH101,,SR_Meas_QMS101,,TA_Meas_QMH101,,GenWind,,GenWind,
time,status,PA,status,PR,status,RH,status,SR,status,TA,status,DirAvg,status,SpdAvg,
2010-04-11, 00:00:05,VALID,916.552,VALID,0,VALID,96.4667,VALID,0.107441,VALID,20.1888,VALID,125,VALID,0.785156,
2010-04-11, 00:01:05,VALID,916.547,VALID,0,VALID,96.4133,VALID,0,VALID,20.1888,VALID,125,VALID,1.16602,
2010-04-11, 00:02:05,VALID,916.529,VALID,0,VALID,96.3752,VALID,0,VALID,20.1693,VALID,125,VALID,1.21836,
2010-04-11, 00:03:05,VALID,916.563,VALID,0,VALID,96.299,VALID,0.107441,VALID,20.1888,VALID,125,VALID,1.18242,
2010-04-11, 00:04:05,VALID,916.546,VALID,0,VALID,96.2761,VALID,0,VALID,20.2293,VALID,125,VALID,1.28672,
2010-04-11, 00:05:05,VALID,916.573,VALID,0,VALID,96.2151,VALID,0.107441,VALID,20.1873,VALID,125,VALID,1.0582,
2010-04-11, 00:06:05,VALID,916.525,VALID,0,VALID,96.1923,VALID,0,VALID,20.2278,VALID,125,VALID,1.12227,
2010-04-11, 00:07:05,VALID,916.501,VALID,0,VALID,96.1618,VALID,0.107441,VALID,20.2083,VALID,125,VALID,0.832812,
2010-04-11, 00:08:05,VALID,916.537,VALID,0,VALID,96.1313,VALID,0.107441,VALID,20.2068,VALID,125,VALID,1.14336,
2010-04-11, 00:09:05,VALID,916.53,VALID,0,VALID,96.0855,VALID,0.107441,VALID,20.2278,VALID,110,VALID,0.946094,
2010-04-11, 00:10:05,VALID,916.531,VALID,0,VALID,96.0169,VALID,0.107441,VALID,20.2083,VALID,109,VALID,1.40391,
2010-04-11, 00:11:05,VALID,916.542,VALID,0,VALID,95.9178,VALID,0.107441,VALID,20.2083,VALID,125,VALID,1.60469,
2010-04-11, 00:12:05,VALID,916.526,VALID,0,VALID,95.7958,VALID,0.107441,VALID,20.2473,VALID,114,VALID,0.658203,
2010-04-11, 00:13:05,VALID,916.534,VALID,0,VALID,95.6967,VALID,0,VALID,20.2278,VALID,114,VALID,0.85625,
2010-04-11, 00:14:05,VALID,916.551,VALID,0,VALID,95.5671,VALID,0.107441,VALID,20.2473,VALID,95,VALID,1.15937,
2010-04-11, 00:15:05,VALID,916.539,VALID,0,VALID,95.4985,VALID,0,VALID,20.2473,VALID,93,VALID,1.05781,
2010-04-11, 00:16:05,VALID,916.544,VALID,0,VALID,95.4375,VALID,0,VALID,20.2473,VALID,93,VALID,0.760547,
2010-04-11, 00:17:05,VALID,916.539,VALID,0,VALID,95.4147,VALID,0,VALID,20.2684,VALID,93,VALID,0.747656,
2010-04-11, 00:18:05,VALID,916.544,VALID,0,VALID,95.4071,VALID,0,VALID,20.2278,VALID,93,VALID,1.02461,
2010-04-11, 00:19:05,VALID,916.524,VALID,0,VALID,95.4604,VALID,0.107441,VALID,20.2278,VALID,93,VALID,0.576563,
2010-04-11, 00:20:05,VALID,916.546,VALID,0,VALID,95.468,VALID,0,VALID,20.2278,VALID,93,VALID,0.758984,
2010-04-11, 00:21:05,VALID,916.523,VALID,0,VALID,95.4833,VALID,0,VALID,20.2278,VALID,93,VALID,0.582812,
2010-04-11, 00:22:05,VALID,916.527,VALID,0,VALID,95.4833,VALID,0.107441,VALID,20.2278,VALID,93,VALID,0.343359,
2010-04-11, 00:23:05,VALID,916.536,VALID,0,VALID,95.3537,VALID,0.107441,VALID,20.2083,VALID,93,VALID,0.973437,
2010-04-11, 00:24:05,VALID,916.51,VALID,0,VALID,95.2851,VALID,0.107441,VALID,20.2083,VALID,93,VALID,0.428906,
2010-04-11, 00:25:05,VALID,916.499,VALID,0,VALID,95.1555,VALID,0,VALID,20.1888,VALID,93,VALID,1.07344,
2010-04-11, 00:26:05,VALID,916.511,VALID,0,VALID,95.003,VALID,0.107441,VALID,20.2083,VALID,94,VALID,0.859375,
2010-04-11, 00:27:05,VALID,916.51,VALID,0,VALID,94.942,VALID,0,VALID,20.2278,VALID,94,VALID,0.583203,
2010-04-11, 00:28:05,VALID,916.495,VALID,0,VALID,94.9115,VALID,0.107441,VALID,20.2473,VALID,94,VALID,0.770703,
2010-04-11, 00:29:05,VALID,916.475,VALID,0,VALID,94.8048,VALID,0.107441,VALID,20.2278,VALID,94,VALID,0.650391,
2010-04-11, 00:30:05,VALID,916.479,VALID,0,VALID,94.7286,VALID,0,VALID,20.2278,VALID,94,VALID,0.767187,
2010-04-11, 00:31:05,VALID,916.459,VALID,0,VALID,94.6752,VALID,0,VALID,20.2473,VALID,94,VALID,0.980859,
2010-04-11, 00:32:05,VALID,916.472,VALID,0,VALID,94.7057,VALID,0.107441,VALID,20.2473,VALID,94,VALID,1.14453,
2010-04-11, 00:33:05,VALID,916.441,VALID,0,VALID,94.7819,VALID,0,VALID,20.2068,VALID,94,VALID,0.857813,
2010-04-11, 00:34:05,VALID,916.466,VALID,0,VALID,94.8658,VALID,0,VALID,20.2068,VALID,94,VALID,1.0125,
2010-04-11, 00:35:05,VALID,916.448,VALID,0,VALID,95.0106,VALID,0,VALID,20.1888,VALID,94,VALID,1.01094,
2010-04-11, 00:36:05,VALID,916.399,VALID,0,VALID,95.1021,VALID,0.107441,VALID,20.1678,VALID,94,VALID,0.892578,
2010-04-11, 00:37:05,VALID,916.425,VALID,0,VALID,95.1783,VALID,0.107441,VALID,20.1693,VALID,94,VALID,0.932813,
2010-04-11, 00:38:05,VALID,916.426,VALID,0,VALID,95.2698,VALID,0.107441,VALID,20.1288,VALID,94,VALID,0.734766,
2010-04-11, 00:39:05,VALID,916.424,VALID,0,VALID,95.3842,VALID,0,VALID,20.1498,VALID,94,VALID,0.762891,
2010-04-11, 00:40:05,VALID,916.438,VALID,0,VALID,95.4375,VALID,0.107441,VALID,20.1303,VALID,94,VALID,0.569141,
2010-04-11, 00:41:05,VALID,916.413,VALID,0,VALID,95.5367,VALID,0,VALID,20.1318,VALID,94,VALID,0.705078,
2010-04-11, 00:42:05,VALID,916.414,VALID,0,VALID,95.5976,VALID,0,VALID,20.1108,VALID,94,VALID,0.576172,
2010-04-11, 00:43:05,VALID,916.417,VALID,0,VALID,95.6815,VALID,0,VALID,20.1108,VALID,94,VALID,0.342187,
2010-04-11, 00:44:05,VALID,916.385,VALID,0,VALID,95.7806,VALID,0,VALID,20.1303,VALID,94,VALID,0.333203,
2010-04-11, 00:45:05,VALID,916.382,VALID,0,VALID,95.7501,VALID,0,VALID,20.0898,VALID,94,VALID,0.296484,
2010-04-11, 00:46:05,VALID,916.386,VALID,0,VALID,95.7577,VALID,0.107441,VALID,20.1108,VALID,94,VALID,0.551172,
2010-04-11, 00:47:05,VALID,916.384,VALID,0,VALID,95.8263,VALID,0.107441,VALID,20.1303,VALID,94,VALID,0.498437,
2010-04-11, 00:48:05,VALID,916.373,VALID,0,VALID,95.8721,VALID,0,VALID,20.1108,VALID,94,VALID,0.664453,
2010-04-11, 00:49:05,VALID,916.411,VALID,0,VALID,95.8873,VALID,0.107441,VALID,20.1108,VALID,94,VALID,0.621875,
2010-04-11, 00:50:05,VALID,916.378,VALID,0,VALID,95.9254,VALID,0,VALID,20.1108,VALID,94,VALID,0.723047,
2010-04-11, 00:51:05,VALID,916.378,VALID,0,VALID,95.9864,VALID,0,VALID,20.1108,VALID,94,VALID,0.791016,
2010-04-11, 00:52:05,VALID,916.379,VALID,0,VALID,95.9712,VALID,0,VALID,20.1108,VALID,94,VALID,1.11055,
2010-04-11, 00:53:05,VALID,916.374,VALID,0.2,VALID,95.9331,VALID,0.107441,VALID,20.0913,VALID,94,VALID,0.952734,
2010-04-11, 00:54:05,VALID,916.367,VALID,0,VALID,95.9483,VALID,0.107441,VALID,20.0718,VALID,94,VALID,0.343359,
2010-04-11, 00:55:05,VALID,916.363,VALID,0,VALID,95.9712,VALID,0.107441,VALID,20.0913,VALID,94,VALID,0.682031,
2010-04-11, 00:56:05,VALID,916.331,VALID,0,VALID,95.9636,VALID,0.107441,VALID,20.0523,VALID,94,VALID,0.403906,
2010-04-11, 00:57:05,VALID,916.325,VALID,0,VALID,95.9864,VALID,0.107441,VALID,20.0523,VALID,94,VALID,0.328516,
2010-04-11, 00:58:05,VALID,916.315,VALID,0,VALID,96.0093,VALID,0,VALID,20.0313,VALID,94,VALID,0.485156,
2010-04-11, 00:59:05,VALID,916.267,VALID,0,VALID,96.0627,VALID,0,VALID,20.0328,VALID,94,VALID,0.64375,
2010-04-11, 01:00:05,VALID,916.25,VALID,0,VALID,96.0855,VALID,0.107441,VALID,20.0328,VALID,94,VALID,0.523047,
2010-04-11, 01:01:05,VALID,916.214,VALID,0,VALID,96.1084,VALID,0.107441,VALID,20.0133,VALID,94,VALID,0.656641,
2010-04-11, 01:02:05,VALID,916.172,VALID,0,VALID,96.1389,VALID,0,VALID,19.9938,VALID,94,VALID,0.682813,
2010-04-11, 01:03:05,VALID,916.139,VALID,0,VALID,96.2151,VALID,0.107441,VALID,19.9743,VALID,94,VALID,1.16562,
2010-04-11, 01:04:05,VALID,916.114,VALID,0,VALID,96.2761,VALID,0,VALID,19.9743,VALID,94,VALID,1.14961,
2010-04-11, 01:05:05,VALID,916.092,VALID,0,VALID,96.3447,VALID,0.107441,VALID,19.9938,VALID,95,VALID,1.28789,
2010-04-11, 01:06:05,VALID,916.053,VALID,0,VALID,96.3676,VALID,0.107441,VALID,19.9938,VALID,95,VALID,1.10938,
2010-04-11, 01:07:05,VALID,916.043,VALID,0,VALID,96.3981,VALID,0,VALID,20.0133,VALID,96,VALID,0.988281,
2010-04-11, 01:08:05,VALID,916.018,VALID,0,VALID,96.3905,VALID,0.107441,VALID,20.0133,VALID,96,VALID,0.333203,
2010-04-11, 01:09:05,VALID,916.02,VALID,0,VALID,96.3829,VALID,0.107441,VALID,20.0328,VALID,96,VALID,0.369531,
2010-04-11, 01:10:05,VALID,916.014,VALID,0,VALID,96.3447,VALID,0,VALID,20.0133,VALID,96,VALID,0.657422,
2010-04-11, 01:11:05,VALID,916.005,VALID,0,VALID,96.3524,VALID,0.107441,VALID,20.0328,VALID,96,VALID,0.310547,
2010-04-11, 01:12:05,VALID,915.989,VALID,0,VALID,96.3295,VALID,0.107441,VALID,20.0718,VALID,96,VALID,0,
2010-04-11, 01:13:05,VALID,915.934,VALID,0,VALID,96.3981,VALID,0.107441,VALID,20.0913,VALID,96,VALID,0.00078125,
2010-04-11, 01:14:05,VALID,915.919,VALID,0,VALID,96.3676,VALID,0,VALID,20.0913,VALID,96,VALID,0.154687,
2010-04-11, 01:15:05,VALID,915.942,VALID,0,VALID,96.4057,VALID,0,VALID,20.1108,VALID,96,VALID,0,
2010-04-11, 01:16:05,VALID,915.924,VALID,0,VALID,96.3981,VALID,0,VALID,20.0913,VALID,96,VALID,0.255859,
2010-04-11, 01:17:05,VALID,915.91,VALID,0,VALID,96.4362,VALID,0,VALID,20.1108,VALID,96,VALID,0.208203,
2010-04-11, 01:18:05,VALID,915.906,VALID,0,VALID,96.4515,VALID,0,VALID,20.0913,VALID,96,VALID,0.0460938,
2010-04-11, 01:19:05,VALID,915.914,VALID,0,VALID,96.4515,VALID,0,VALID,20.0913,VALID,96,VALID,0.170312,
2010-04-11, 01:20:05,VALID,915.909,VALID,0,VALID,96.4362,VALID,0,VALID,20.0913,VALID,96,VALID,0.208594,
2010-04-11, 01:21:05,VALID,915.905,VALID,0,VALID,96.4362,VALID,0,VALID,20.0718,VALID,96,VALID,0.141406,
2010-04-11, 01:22:05,VALID,915.888,VALID,0,VALID,96.4819,VALID,0,VALID,20.1123,VALID,96,VALID,0.0109375,
2010-04-11, 01:23:05,VALID,915.905,VALID,0,VALID,96.5353,VALID,0,VALID,20.1123,VALID,96,VALID,0,
2010-04-11, 01:24:05,VALID,915.889,VALID,0,VALID,96.5429,VALID,0.107441,VALID,20.0898,VALID,96,VALID,0.0015625,
2010-04-11, 01:25:05,VALID,915.9,VALID,0,VALID,96.4743,VALID,0,VALID,20.1123,VALID,96,VALID,0.568359,
2010-04-11, 01:26:05,VALID,915.865,VALID,0,VALID,96.4286,VALID,0,VALID,20.0523,VALID,96,VALID,0.629687,
2010-04-11, 01:27:05,VALID,915.885,VALID,0,VALID,96.4515,VALID,0,VALID,20.0328,VALID,96,VALID,0.597656,
2010-04-11, 01:28:05,VALID,915.852,VALID,0,VALID,96.4133,VALID,0,VALID,19.9938,VALID,96,VALID,0.635938,
2010-04-11, 01:29:05,VALID,915.841,VALID,0,VALID,96.4362,VALID,0.107441,VALID,19.9548,VALID,96,VALID,0.746484,
2010-04-11, 01:30:05,VALID,915.817,VALID,0,VALID,96.4743,VALID,0,VALID,19.9158,VALID,96,VALID,0.732422,
2010-04-11, 01:31:05,VALID,915.797,VALID,0,VALID,96.4819,VALID,0.107441,VALID,19.8753,VALID,96,VALID,0.618359,
2010-04-11, 01:32:05,VALID,915.776,VALID,0,VALID,96.5124,VALID,0,VALID,19.8768,VALID,96,VALID,0.433203,
2010-04-11, 01:33:05,VALID,915.792,VALID,0,VALID,96.5429,VALID,0,VALID,19.8768,VALID,96,VALID,0.482031,
2010-04-11, 01:34:05,VALID,915.76,VALID,0,VALID,96.5811,VALID,0.107441,VALID,19.8573,VALID,96,VALID,0.45625,
2010-04-11, 01:35:05,VALID,915.779,VALID,0,VALID,96.5963,VALID,0.107441,VALID,19.8378,VALID,96,VALID,0.284375,
2010-04-11, 01:36:05,VALID,915.756,VALID,0,VALID,96.6268,VALID,0.107441,VALID,19.8378,VALID,96,VALID,0.444141,
2010-04-11, 01:37:05,VALID,915.741,VALID,0,VALID,96.6497,VALID,0,VALID,19.8378,VALID,96,VALID,0.654688,
2010-04-11, 01:38:05,VALID,915.709,VALID,0,VALID,96.6497,VALID,0,VALID,19.8588,VALID,96,VALID,0.887891,
2010-04-11, 01:39:05,VALID,915.697,VALID,0,VALID,96.6573,VALID,0,VALID,19.8393,VALID,96,VALID,0.789063,
2010-04-11, 01:40:05,VALID,915.695,VALID,0,VALID,96.6649,VALID,0,VALID,19.8183,VALID,96,VALID,0.839844,
2010-04-11, 01:41:05,VALID,915.696,VALID,0,VALID,96.6878,VALID,0,VALID,19.8183,VALID,96,VALID,0.794141,
2010-04-11, 01:42:05,VALID,915.662,VALID,0,VALID,96.703,VALID,0,VALID,19.8393,VALID,96,VALID,0.703906,
2010-04-11, 01:43:05,VALID,915.687,VALID,0,VALID,96.703,VALID,0,VALID,19.7988,VALID,96,VALID,0.645703,
2010-04-11, 01:44:05,VALID,915.665,VALID,0,VALID,96.7411,VALID,0,VALID,19.8198,VALID,96,VALID,1.23203,
2010-04-11, 01:45:05,VALID,915.648,VALID,0,VALID,96.7411,VALID,0,VALID,19.8003,VALID,96,VALID,0.627734,
2010-04-11, 01:46:05,VALID,915.615,VALID,0,VALID,96.7716,VALID,0,VALID,19.8198,VALID,96,VALID,0.978516,
2010-04-11, 01:47:05,VALID,915.616,VALID,0,VALID,96.7793,VALID,0,VALID,19.7808,VALID,97,VALID,0.955469,
2010-04-11, 01:48:05,VALID,915.592,VALID,0,VALID,96.7945,VALID,0,VALID,19.7598,VALID,97,VALID,0.869531,
2010-04-11, 01:49:05,VALID,915.587,VALID,0,VALID,96.825,VALID,0,VALID,19.7808,VALID,97,VALID,1.06328,
2010-04-11, 01:50:05,VALID,915.586,VALID,0,VALID,96.8479,VALID,0.107441,VALID,19.7403,VALID,97,VALID,0.780859,
2010-04-11, 01:51:05,VALID,915.53,VALID,0,VALID,96.8936,VALID,0,VALID,19.7613,VALID,97,VALID,0.577344,
2010-04-11, 01:52:05,VALID,915.558,VALID,0,VALID,96.9089,VALID,0,VALID,19.7598,VALID,97,VALID,0.505469,
2010-04-11, 01:53:05,VALID,915.542,VALID,0,VALID,96.9241,VALID,0,VALID,19.7403,VALID,97,VALID,0.549219,
2010-04-11, 01:54:05,VALID,915.504,VALID,0,VALID,96.9622,VALID,0.107441,VALID,19.7403,VALID,97,VALID,0.403906,
2010-04-11, 01:55:05,VALID,915.521,VALID,0,VALID,96.9698,VALID,0,VALID,19.7793,VALID,97,VALID,0.841797,
2010-04-11, 01:56:05,VALID,915.497,VALID,0,VALID,96.9775,VALID,0,VALID,19.7208,VALID,97,VALID,0.725,
2010-04-11, 01:57:05,VALID,915.479,VALID,0,VALID,97.008,VALID,0,VALID,19.7013,VALID,97,VALID,0.554688,
2010-04-11, 01:58:05,VALID,915.479,VALID,0,VALID,97.008,VALID,0,VALID,19.7013,VALID,97,VALID,0.597656,
2010-04-11, 01:59:05,VALID,915.424,VALID,0,VALID,97.0461,VALID,0,VALID,19.7208,VALID,97,VALID,0.564844,
2010-04-11, 02:00:05,VALID,915.415,VALID,0,VALID,97.069,VALID,0,VALID,19.7208,VALID,97,VALID,0.450781,
2010-04-11, 02:01:05,VALID,915.426,VALID,0,VALID,97.0918,VALID,0,VALID,19.7403,VALID,97,VALID,0.628516,
2010-04-11, 02:02:05,VALID,915.395,VALID,0,VALID,97.0842,VALID,0,VALID,19.7598,VALID,97,VALID,0.122266,
2010-04-11, 02:03:05,VALID,915.382,VALID,0,VALID,97.0994,VALID,0.107441,VALID,19.7808,VALID,97,VALID,0.221875,
2010-04-11, 02:04:05,VALID,915.336,VALID,0,VALID,97.1299,VALID,0,VALID,19.7793,VALID,97,VALID,0.0839844,
2010-04-11, 02:05:05,VALID,915.331,VALID,0,VALID,97.1147,VALID,0,VALID,19.7988,VALID,97,VALID,0.103516,
2010-04-11, 02:06:05,VALID,915.329,VALID,0,VALID,97.1299,VALID,0,VALID,19.8183,VALID,97,VALID,0.263672,
2010-04-11, 02:07:05,VALID,915.292,VALID,0,VALID,97.1376,VALID,0.107441,VALID,19.8183,VALID,97,VALID,0.331641,
2010-04-11, 02:08:05,VALID,915.293,VALID,0,VALID,97.1299,VALID,0,VALID,19.8393,VALID,97,VALID,0.514063,
2010-04-11, 02:09:04,VALID,915.275,VALID,0,VALID,97.1376,VALID,0,VALID,19.8378,VALID,97,VALID,0.677734,
2010-04-11, 02:10:04,VALID,915.24,VALID,0,VALID,97.1299,VALID,0.107441,VALID,19.8378,VALID,97,VALID,0.525391,
2010-04-11, 02:11:04,VALID,915.282,VALID,0,VALID,97.1223,VALID,0.107441,VALID,19.8573,VALID,97,VALID,0.414844,
2010-04-11, 02:12:04,VALID,915.235,VALID,0,VALID,97.1147,VALID,0,VALID,19.8573,VALID,97,VALID,0.369531,
2010-04-11, 02:13:04,VALID,915.229,VALID,0,VALID,97.1071,VALID,0,VALID,19.8768,VALID,97,VALID,0.467578,
2010-04-11, 02:14:04,VALID,915.2,VALID,0,VALID,97.0537,VALID,0,VALID,19.8378,VALID,97,VALID,0.397266,
2010-04-11, 02:15:04,VALID,915.182,VALID,0,VALID,96.9698,VALID,0,VALID,19.7988,VALID,97,VALID,0.447656,
2010-04-11, 02:16:04,VALID,915.185,VALID,0,VALID,96.9165,VALID,0,VALID,19.7808,VALID,97,VALID,0.598437,
2010-04-11, 02:17:04,VALID,915.171,VALID,0,VALID,96.9012,VALID,0,VALID,19.7403,VALID,97,VALID,0.766797,
2010-04-11, 02:18:04,VALID,915.172,VALID,0,VALID,96.8707,VALID,0,VALID,19.7208,VALID,97,VALID,0.708984,
2010-04-11, 02:19:04,VALID,915.161,VALID,0,VALID,96.886,VALID,0.107441,VALID,19.7013,VALID,97,VALID,0.458594,
2010-04-11, 02:20:04,VALID,915.155,VALID,0,VALID,96.9394,VALID,0,VALID,19.6818,VALID,97,VALID,0.209375,
2010-04-11, 02:21:04,VALID,915.136,VALID,0,VALID,96.9546,VALID,0,VALID,19.7013,VALID,97,VALID,0,
2010-04-11, 02:22:04,VALID,915.133,VALID,0,VALID,96.9698,VALID,0.107441,VALID,19.7013,VALID,97,VALID,0,
2010-04-11, 02:23:04,VALID,915.138,VALID,0,VALID,96.9775,VALID,0,VALID,19.7013,VALID,97,VALID,0,
2010-04-11, 02:24:04,VALID,915.151,VALID,0,VALID,96.9698,VALID,0.107441,VALID,19.7208,VALID,97,VALID,0,
2010-04-11, 02:25:04,VALID,915.143,VALID,0,VALID,96.9775,VALID,0,VALID,19.7208,VALID,97,VALID,0,
2010-04-11, 02:26:04,VALID,915.119,VALID,0,VALID,96.9927,VALID,0,VALID,19.7208,VALID,97,VALID,0.204688,
2010-04-11, 02:27:04,VALID,915.114,VALID,0,VALID,97.0003,VALID,0,VALID,19.7598,VALID,97,VALID,0.389453,
2010-04-11, 02:28:04,VALID,915.108,VALID,0,VALID,96.9546,VALID,0,VALID,19.7403,VALID,97,VALID,0.550781,
2010-04-11, 02:29:04,VALID,915.099,VALID,0,VALID,96.9241,VALID,0,VALID,19.7013,VALID,97,VALID,0.515625,
2010-04-11, 02:30:04,VALID,915.101,VALID,0,VALID,96.9317,VALID,0,VALID,19.7013,VALID,97,VALID,0.758984,
2010-04-11, 02:31:04,VALID,915.065,VALID,0,VALID,96.947,VALID,0,VALID,19.7418,VALID,97,VALID,0.518359,
2010-04-11, 02:32:04,VALID,915.061,VALID,0,VALID,96.947,VALID,0,VALID,19.7223,VALID,97,VALID,0.726953,
2010-04-11, 02:33:04,VALID,915.047,VALID,0,VALID,96.9622,VALID,0,VALID,19.7223,VALID,163,VALID,1.20391,
2010-04-11, 02:34:04,VALID,915.036,VALID,0,VALID,96.9698,VALID,0,VALID,19.7013,VALID,163,VALID,0.7125,
2010-04-11, 02:35:04,VALID,915.034,VALID,0,VALID,96.9851,VALID,0,VALID,19.7028,VALID,163,VALID,0.656641,
2010-04-11, 02:36:04,VALID,915.017,VALID,0,VALID,96.9698,VALID,0,VALID,19.6623,VALID,163,VALID,0.815625,
2010-04-11, 02:37:04,VALID,915.011,VALID,0,VALID,97.0003,VALID,0,VALID,19.6623,VALID,163,VALID,0.886719,
2010-04-11, 02:38:04,VALID,914.984,VALID,0,VALID,97.0461,VALID,0,VALID,19.6623,VALID,163,VALID,0.912109,
2010-04-11, 02:39:04,VALID,914.962,VALID,0,VALID,97.0385,VALID,0,VALID,19.6638,VALID,163,VALID,0.95625,
2010-04-11, 02:40:04,VALID,914.954,VALID,0,VALID,97.069,VALID,0,VALID,19.6428,VALID,163,VALID,1.11172,
2010-04-11, 02:41:04,VALID,914.968,VALID,0,VALID,97.069,VALID,0.107441,VALID,19.6233,VALID,163,VALID,0.867188,
2010-04-11, 02:42:04,VALID,914.966,VALID,0,VALID,97.0994,VALID,0,VALID,19.6443,VALID,163,VALID,0.849609,
2010-04-11, 02:43:04,VALID,914.973,VALID,0,VALID,97.1299,VALID,0,VALID,19.6038,VALID,163,VALID,0.69375,
2010-04-11, 02:44:04,VALID,914.985,VALID,0,VALID,97.1452,VALID,0,VALID,19.6053,VALID,163,VALID,0.580078,
2010-04-11, 02:45:04,VALID,915.012,VALID,0,VALID,97.1376,VALID,0,VALID,19.6038,VALID,163,VALID,0.628125,
2010-04-11, 02:46:04,VALID,914.981,VALID,0,VALID,97.1681,VALID,0,VALID,19.6053,VALID,163,VALID,0.651563,
2010-04-11, 02:47:04,VALID,914.987,VALID,0,VALID,97.1681,VALID,0,VALID,19.5843,VALID,163,VALID,0.662891,
2010-04-11, 02:48:04,VALID,915.003,VALID,0,VALID,97.1604,VALID,0,VALID,19.5648,VALID,163,VALID,0.629297,
2010-04-11, 02:49:04,VALID,914.995,VALID,0,VALID,97.1528,VALID,0,VALID,19.5453,VALID,163,VALID,0.733203,
2010-04-11, 02:50:04,VALID,914.996,VALID,0,VALID,97.1376,VALID,0,VALID,19.5453,VALID,163,VALID,0.788281,
2010-04-11, 02:51:04,VALID,914.985,VALID,0,VALID,97.1528,VALID,0.107441,VALID,19.5453,VALID,163,VALID,0.695703,
2010-04-11, 02:52:04,VALID,915.006,VALID,0,VALID,97.1452,VALID,0,VALID,19.5663,VALID,163,VALID,0.658594,
2010-04-11, 02:53:04,VALID,915.018,VALID,0,VALID,97.1071,VALID,0,VALID,19.5468,VALID,163,VALID,0.446875,
2010-04-11, 02:54:04,VALID,915.006,VALID,0,VALID,97.1299,VALID,0,VALID,19.5258,VALID,163,VALID,0.623047,
2010-04-11, 02:55:04,VALID,915.006,VALID,0,VALID,97.0994,VALID,0,VALID,19.5468,VALID,163,VALID,0.598437,
2010-04-11, 02:56:04,VALID,915.008,VALID,0,VALID,97.0537,VALID,0,VALID,19.5063,VALID,163,VALID,0.870313,
2010-04-11, 02:57:04,VALID,915.036,VALID,0,VALID,97.0461,VALID,0,VALID,19.5273,VALID,163,VALID,0.123438,
2010-04-11, 02:58:04,VALID,915.036,VALID,0,VALID,97.0232,VALID,0,VALID,19.4868,VALID,163,VALID,0.399609,
2010-04-11, 02:59:04,VALID,915.052,VALID,0,VALID,96.9698,VALID,0,VALID,19.5063,VALID,163,VALID,0.711719,
2010-04-11, 03:00:04,VALID,915.05,VALID,0,VALID,96.9241,VALID,0,VALID,19.5063,VALID,163,VALID,0.188672,
2010-04-11, 03:01:04,VALID,915.043,VALID,0,VALID,96.886,VALID,0,VALID,19.5468,VALID,163,VALID,0.283984,
2010-04-11, 03:02:04,VALID,915.042,VALID,0,VALID,96.8326,VALID,0,VALID,19.5258,VALID,163,VALID,0.524609,
2010-04-11, 03:03:04,VALID,915.02,VALID,0,VALID,96.7564,VALID,0,VALID,19.5258,VALID,163,VALID,0.591797,
2010-04-11, 03:04:04,VALID,915.024,VALID,0,VALID,96.7107,VALID,0,VALID,19.5453,VALID,163,VALID,0.480078,
2010-04-11, 03:05:04,VALID,914.995,VALID,0,VALID,96.6268,VALID,0,VALID,19.5663,VALID,163,VALID,0.632813,
2010-04-11, 03:06:04,VALID,915.002,VALID,0,VALID,96.5429,VALID,0.107441,VALID,19.5453,VALID,163,VALID,0.616406,
2010-04-11, 03:07:04,VALID,914.992,VALID,0,VALID,96.4362,VALID,0,VALID,19.5258,VALID,163,VALID,0.548047,
2010-04-11, 03:08:04,VALID,915.001,VALID,0,VALID,96.3524,VALID,0,VALID,19.5063,VALID,163,VALID,0.583594,
2010-04-11, 03:09:04,VALID,914.984,VALID,0,VALID,96.238,VALID,0,VALID,19.5063,VALID,163,VALID,0.732813,
2010-04-11, 03:10:04,VALID,914.989,VALID,0,VALID,96.1618,VALID,0,VALID,19.5063,VALID,163,VALID,0.558594,
2010-04-11, 03:11:04,VALID,915.006,VALID,0,VALID,96.1084,VALID,0,VALID,19.5078,VALID,163,VALID,0.494531,
2010-04-11, 03:12:04,VALID,914.98,VALID,0,VALID,96.0932,VALID,0,VALID,19.4673,VALID,163,VALID,0.721094,
2010-04-11, 03:13:04,VALID,914.978,VALID,0,VALID,96.0779,VALID,0,VALID,19.4688,VALID,163,VALID,0.647656,
2010-04-11, 03:14:04,VALID,914.97,VALID,0,VALID,96.1084,VALID,0,VALID,19.4493,VALID,163,VALID,0.717578,
2010-04-11, 03:15:04,VALID,914.985,VALID,0,VALID,96.0855,VALID,0,VALID,19.4493,VALID,163,VALID,0.746484,
2010-04-11, 03:16:04,VALID,914.993,VALID,0,VALID,96.0932,VALID,0,VALID,19.4298,VALID,163,VALID,0.853125,
2010-04-11, 03:17:04,VALID,914.978,VALID,0,VALID,96.1236,VALID,0,VALID,19.4283,VALID,163,VALID,0.621875,
2010-04-11, 03:18:04,VALID,915.002,VALID,0,VALID,96.1313,VALID,0,VALID,19.4493,VALID,163,VALID,0.630469,
2010-04-11, 03:19:04,VALID,915.002,VALID,0,VALID,96.0779,VALID,0,VALID,19.4088,VALID,163,VALID,0.48125,
2010-04-11, 03:20:04,VALID,914.982,VALID,0,VALID,96.0779,VALID,0,VALID,19.4088,VALID,163,VALID,0.348047,
2010-04-11, 03:21:04,VALID,914.997,VALID,0,VALID,96.0627,VALID,0,VALID,19.4103,VALID,163,VALID,0.360938,
2010-04-11, 03:22:04,VALID,914.964,VALID,0,VALID,96.055,VALID,0,VALID,19.3713,VALID,163,VALID,0.49375,
2010-04-11, 03:23:04,VALID,914.928,VALID,0,VALID,96.1008,VALID,0,VALID,19.3323,VALID,163,VALID,0.488672,
2010-04-11, 03:24:04,VALID,914.958,VALID,0,VALID,96.2151,VALID,0,VALID,19.3518,VALID,163,VALID,0.859375,
2010-04-11, 03:25:04,VALID,914.935,VALID,0,VALID,96.2685,VALID,0,VALID,19.2918,VALID,163,VALID,0.651172,
2010-04-11, 03:26:04,VALID,914.933,VALID,0,VALID,96.3524,VALID,0,VALID,19.2918,VALID,163,VALID,0.68125,
2010-04-11, 03:27:04,VALID,914.944,VALID,0,VALID,96.421,VALID,0,VALID,19.3323,VALID,163,VALID,0.515234,
2010-04-11, 03:28:04,VALID,914.942,VALID,0,VALID,96.5201,VALID,0,VALID,19.3323,VALID,162,VALID,0.716406,
2010-04-11, 03:29:04,VALID,914.913,VALID,0,VALID,96.5811,VALID,0,VALID,19.3308,VALID,162,VALID,0.867188,
2010-04-11, 03:30:04,VALID,914.94,VALID,0,VALID,96.6268,VALID,0,VALID,19.3713,VALID,161,VALID,0.817969,
2010-04-11, 03:31:04,VALID,914.947,VALID,0,VALID,96.6725,VALID,0,VALID,19.3713,VALID,160,VALID,1.03633,
2010-04-11, 03:32:04,VALID,914.961,VALID,0,VALID,96.7564,VALID,0,VALID,19.3503,VALID,125,VALID,1.32031,
2010-04-11, 03:33:04,VALID,914.946,VALID,0,VALID,96.8098,VALID,0,VALID,19.3908,VALID,125,VALID,0.705859,
2010-04-11, 03:34:04,VALID,914.929,VALID,0,VALID,96.8707,VALID,0,VALID,19.3713,VALID,125,VALID,1.11992,
2010-04-11, 03:35:04,VALID,914.925,VALID,0,VALID,96.8936,VALID,0,VALID,19.3713,VALID,121,VALID,1.42266,
2010-04-11, 03:36:04,VALID,914.924,VALID,0,VALID,96.8936,VALID,0,VALID,19.3713,VALID,120,VALID,0.879297,
2010-04-11, 03:37:04,VALID,914.907,VALID,0,VALID,96.9241,VALID,0,VALID,19.3923,VALID,129,VALID,1.31836,
2010-04-11, 03:38:04,VALID,914.9,VALID,0,VALID,96.9394,VALID,0,VALID,19.3713,VALID,123,VALID,1.15703,
2010-04-11, 03:39:04,VALID,914.888,VALID,0,VALID,96.9775,VALID,0,VALID,19.3518,VALID,123,VALID,1.6418,
2010-04-11, 03:40:04,VALID,914.897,VALID,0,VALID,96.9546,VALID,0,VALID,19.3518,VALID,123,VALID,0.99375,
2010-04-11, 03:41:04,VALID,914.91,VALID,0,VALID,96.9546,VALID,0,VALID,19.3713,VALID,123,VALID,1.02305,
2010-04-11, 03:42:04,VALID,914.917,VALID,0,VALID,96.947,VALID,0,VALID,19.3713,VALID,122,VALID,1.05078,